sat.trackr.live / text

‹ back to catalog

HULIANWANG JISHU SHIYAN*

NORAD 58693 · 2023-212C

PAYLOAD ACTIVE UNKNOWN

§ Identity

Operator
Country
PRC
Launch date
2023-12-30
Launch site
JSC
Launch vehicle
Mass (kg)
RCS (m²)

External: N2YO · Heavens-Above · Gunter

§ Orbital elements

Epoch: 2026-05-25T04:52:40.355040Z

Period
107.35 min
Inclination
49.9992°
Eccentricity
0.0001302
Mean motion
13.41458845 rev/d
Perigee alt
1,102.9 km
Apogee alt
1,104.8 km
Semi-major
7,482.0 km
B*
7.5859e-5
RAAN
68.4334°
Arg perigee
15.3481°
Mean anomaly
344.7435°
Rev number
11,817

§ Raw data

HULIANWANG JISHU SHIYAN*1 58693U 23212C   26145.20324485 -.00000086  00000+0  75859-4 0  99992 58693  49.9992  68.4334 0001302  15.3481 344.7435 13.41458845118172

JSON: /api/v1/satellites/58693 · /tle

For live sub-satellite position, see the globe view (requires WebGL).

§ Visibility from observer

Set your observer location to see the next 7 days of passes ≥ 10°. The values pass through the URL so the page stays shareable.

No JS? Fill the form by hand. The geolocation button needs JavaScript.